Location: Palomar Mountain Lodge
(33.3110°N, 116.8495°W)
Time: 03:31:46
(UTC-07:00)

Lacrosse 5 - Pass Details

Date: 14 June 2018
Orbit: 714 x 724 km, 57.0° (Epoch: 10 July)

Event Time Altitude Azimuth Distance (km) Brightness Sun altitude
Exits shadow 22:02:02 12° 70° (ENE) 2,051 4.0 -21.0°
Drops below altitude 10° 22:02:30 10° 66° (ENE) 2,193 4.2 -21.0°
Sets 22:05:14 0° 53° (NE) 3,115 5.1 -21.4°
